FW1480 Weather Reports


Display with metric or nautical units.
time (UTC)temp
F
wind
direction
speed
MPH
gust
MPH
rain 1hr
in
rain 24hr
in
rain mn
in
humidity
%
barometer
mb
20260510234456 61 147 0.0 0.0 0.00 0.00 0.00 83 1015.9
20260510233949 61 147 0.0 0.0 0.00 0.00 0.00 82 1015.7
20260510233443 62 147 0.0 0.0 0.00 0.00 0.00 82 1015.6
20260510232431 62 147 0.0 0.0 0.00 0.00 0.00 81 1015.5
20260510231925 62 147 0.0 0.0 0.00 0.00 0.00 80 1015.5
20260510231420 62 147 0.0 0.0 0.00 0.00 0.00 80 1015.5
20260510230914 62 147 0.0 0.0 0.00 0.00 0.00 80 1015.5
20260510230407 63 147 0.0 0.0 0.00 0.00 0.00 79 1015.4
20260510225901 63 147 0.0 0.0 0.00 0.00 0.00 79 1015.4
20260510225355 63 147 0.0 0.0 0.00 0.00 0.00 79 1015.6
20260510224344 64 147 0.0 0.0 0.00 0.00 0.00 76 1015.3
20260510223838 64 147 0.0 0.0 0.00 0.00 0.00 77 1015.2
20260510222830 63 147 0.0 0.0 0.00 0.00 0.00 77 1015.0
20260510222326 63 147 0.0 0.0 0.00 0.00 0.00 79 1015.1
20260510221827 63 160 0.0 0.0 0.00 0.01 0.00 79 1015.1
20260510221325 63 160 0.0 0.0 0.00 0.01 0.00 78 1015.1
20260510220824 63 160 0.0 0.0 0.00 0.03 0.00 77 1015.1
20260510215822 63 129 0.0 0.0 0.00 0.06 0.00 78 1015.1
20260510215319 63 129 0.0 0.0 0.00 0.08 0.00 77 1015.0
20260510214817 63 129 0.0 0.0 0.00 0.08 0.00 77 1014.9
20260510214315 63 129 0.0 0.0 0.00 0.11 0.00 77 1014.9
20260510213310 63 143 0.0 1.0 0.00 0.15 0.00 76 1014.8
20260510212811 63 89 0.0 1.0 0.00 0.16 0.00 76 1014.7
20260510212311 63 259 0.0 1.0 0.00 0.19 0.00 76 1014.8
20260510211811 64 37 0.0 2.0 0.00 0.20 0.00 76 1014.7
20260510211311 64 94 0.0 2.0 0.00 0.20 0.00 75 1014.6
20260510210807 65 68 0.0 1.0 0.00 0.22 0.00 73 1014.7
20260510210306 65 44 0.0 1.0 0.00 0.24 0.00 73 1014.6
20260510205808 66 82 0.0 7.0 0.00 0.24 0.00 73 1014.4
20260510204808 68 120 0.0 3.0 0.00 0.26 0.00 70 1014.2
20260510204308 68 147 0.0 0.0 0.00 0.26 0.00 70 1014.1
20260510203807 68 149 0.0 1.0 0.00 0.27 0.00 71 1014.1
20260510202306 69 171 0.0 1.0 0.00 0.27 0.00 72 1014.2
20260510201804 69 123 0.0 3.0 0.00 0.27 0.00 72 1014.1
20260510201304 69 121 0.0 3.0 0.00 0.27 0.00 73 1014.1
20260510200804 69 172 0.0 0.0 0.00 0.27 0.00 72 1014.2
20260510200303 69 120 0.0 0.0 0.00 0.28 0.00 73 1014.0
20260510195803 69 139 0.0 1.0 0.00 0.28 0.00 71 1014.0
20260510195306 69 114 0.0 1.0 0.00 0.29 0.00 72 1014.0
20260510194302 68 99 0.0 7.0 0.00 0.30 0.00 72 1014.3
20260510193759 68 112 0.0 2.0 0.00 0.30 0.00 73 1014.4
20260510193259 68 151 0.0 2.0 0.00 0.30 0.00 74 1014.4
20260510192752 67 92 0.0 2.0 0.00 0.31 0.00 74 1014.4
20260510192244 67 165 0.0 1.0 0.00 0.32 0.00 77 1014.5
20260510191739 66 194 0.0 1.0 0.00 0.35 0.00 76 1014.5
20260510191233 66 121 0.0 1.0 0.00 0.37 0.00 76 1014.5
20260510190219 66 217 0.0 1.0 0.00 0.40 0.00 75 1014.6
20260510185713 66 180 0.0 0.0 0.00 0.40 0.00 76 1014.7
20260510185207 66 152 0.0 0.0 0.00 0.41 0.00 75 1014.7
20260510184701 67 139 0.0 0.0 0.00 0.42 0.00 74 1014.6
20260510184156 67 198 0.0 0.0 0.00 0.42 0.00 75 1014.6
20260510183649 67 137 0.0 0.0 0.00 0.42 0.00 74 1014.7
20260510183143 67 134 0.0 0.0 0.00 0.42 0.00 73 1014.5
20260510182637 67 120 0.0 0.0 0.00 0.42 0.00 74 1014.5
20260510182131 67 193 0.0 0.0 0.00 0.42 0.00 72 1014.6
20260510181624 67 124 0.0 0.0 0.00 0.42 0.00 72 1014.5
20260510181119 68 121 0.0 1.0 0.00 0.42 0.00 70 1014.6
20260510180613 68 57 0.0 1.0 0.00 0.42 0.00 68 1014.6
20260510175055 69 177 0.0 5.0 0.00 0.42 0.00 68 1014.6
20260510174549 69 181 0.0 5.0 0.00 0.42 0.00 71 1014.4
20260510174043 69 207 0.0 4.0 0.00 0.42 0.00 70 1014.5
20260510173537 69 148 0.0 4.0 0.00 0.42 0.00 71 1014.4
20260510173031 69 144 0.0 3.0 0.00 0.42 0.00 71 1014.4
20260510172525 69 206 0.0 1.0 0.00 0.42 0.00 72 1014.5
20260510172019 69 120 0.0 1.0 0.00 0.42 0.00 70 1014.6
20260510171007 68 148 0.0 1.0 0.00 0.42 0.00 73 1014.3
20260510170501 67 245 0.0 1.0 0.00 0.42 0.00 74 1014.4
20260510165955 66 205 0.0 1.0 0.00 0.42 0.00 73 1014.3
20260510165452 66 309 0.0 0.0 0.00 0.42 0.00 75 1014.1
20260510164952 66 128 0.0 0.0 0.00 0.42 0.00 74 1014.1
20260510164450 66 168 0.0 0.0 0.00 0.42 0.00 73 1014.2
20260510163950 66 354 0.0 2.0 0.00 0.42 0.00 75 1014.4
20260510163451 66 139 0.0 2.0 0.00 0.42 0.00 74 1014.5
20260510162950 66 146 0.0 1.0 0.00 0.42 0.00 77 1014.7
20260510162451 65 114 0.0 3.0 0.00 0.42 0.00 77 1014.9
20260510161952 65 146 0.0 3.0 0.00 0.42 0.00 76 1014.8
20260510161451 65 128 0.0 0.0 0.00 0.42 0.00 76 1014.7
20260510160446 65 155 0.0 0.0 0.00 0.42 0.00 78 1014.8
20260510155945 65 178 0.0 0.0 0.00 0.42 0.00 81 1014.8
20260510154940 63 197 0.0 1.0 0.00 0.42 0.00 81 1014.7
20260510154441 63 198 0.0 1.0 0.00 0.42 0.00 80 1014.6
20260510153941 64 131 0.0 1.0 0.00 0.42 0.00 80 1014.6
20260510153441 64 137 0.0 1.0 0.00 0.42 0.00 82 1014.7
20260510152940 63 207 0.0 1.0 0.00 0.42 0.00 82 1014.8
20260510151933 62 141 0.0 2.0 0.00 0.42 0.00 84 1015.1
20260510151428 62 156 0.0 2.0 0.00 0.42 0.00 84 1015.1
20260510150927 62 115 0.0 2.0 0.00 0.42 0.00 84 1015.1
20260510145926 61 124 0.0 0.0 0.00 0.42 0.00 88 1015.0
20260510144924 60 140 0.0 1.0 0.00 0.42 0.00 90 1015.0
20260510144425 60 136 0.0 0.0 0.00 0.42 0.00 92 1015.0
20260510143923 59 179 0.0 0.0 0.00 0.42 0.00 92 1014.9
20260510143425 58 238 0.0 0.0 0.00 0.42 0.00 93 1014.9
20260510142924 58 160 0.0 0.0 0.00 0.42 0.00 95 1014.8
20260510142423 57 151 0.0 0.0 0.00 0.42 0.00 96 1014.7
20260510141425 57 155 0.0 0.0 0.00 0.42 0.00 96 1014.7
20260510140924 56 166 0.0 0.0 0.00 0.42 0.00 96 1014.8
20260510140423 56 200 0.0 0.0 0.00 0.42 0.00 97 1014.7
20260510135924 55 218 0.0 0.0 0.00 0.42 0.00 97 1014.8
20260510135424 54 295 0.0 0.0 0.00 0.42 0.00 97 1014.9
20260510134925 54 22 0.0 0.0 0.00 0.42 0.00 97 1014.7
20260510134423 0 0.0 0.0 0.00 0.42 0.00 1014.7
20260510133917 0 0.0 0.0 0.00 0.42 0.00 1014.8
20260510133419 0 0.0 0.0 0.00 0.42 0.00 1014.7
20260510132827 0 0.0 0.0 0.00 0.42 0.00 1014.6
20260510132323 0 0.0 0.0 0.00 0.42 0.00 1014.6
20260510131816 0 0.0 0.0 0.00 0.42 0.00 1014.4
20260510131317 0 0.0 0.0 0.00 0.42 0.00 1014.4
20260510130815 0 0.0 0.0 0.00 0.42 0.00 1014.5
20260510130227 0 0.0 0.0 0.00 0.42 0.00 1014.4
20260510125722 0 0.0 0.0 0.00 0.42 0.00 1014.4
20260510124621 0 0.0 0.0 0.00 0.42 0.00 1014.4
20260510124119 0 0.0 0.0 0.00 0.42 0.00 1014.4
20260510123526 0 0.0 0.0 0.00 0.42 0.00 1014.4
20260510123021 0 0.0 0.0 0.00 0.42 0.00 1014.3
20260510122520 0 0.0 0.0 0.00 0.42 0.00 1014.3
20260510122012 0 0.0 0.0 0.00 0.42 0.00 1014.3
20260510121423 0 0.0 0.0 0.00 0.42 0.00 1014.1
20260510120920 0 0.0 0.0 0.00 0.42 0.00 1014.1
20260510120413 0 0.0 0.0 0.00 0.42 0.00 1014.1
20260510115821 0 0.0 0.0 0.00 0.42 0.00 1014.2
20260510115317 0 0.0 0.0 0.00 0.42 0.00 1014.0
20260510114813 0 0.0 0.0 0.00 0.42 0.00 1013.9
20260510114226 0 0.0 0.0 0.00 0.42 0.00 1013.9
20260510113217 0 0.0 0.0 0.00 0.42 0.00 1013.9
20260510112716 0 0.0 0.0 0.00 0.42 0.00 1013.8
20260510112124 0 0.0 0.0 0.00 0.42 0.00 1013.7
20260510111617 0 0.0 0.0 0.00 0.42 0.00 1013.6
20260510111116 0 0.0 0.0 0.00 0.42 0.00 1013.6
20260510110518 0 0.0 0.0 0.00 0.42 0.00 1013.4
20260510110019 0 0.0 0.0 0.00 0.42 0.00 1013.5
20260510105513 0 0.0 0.0 0.00 0.42 0.00 1013.7
20260510104924 0 0.0 0.0 0.00 0.42 0.00 1013.8
20260510104418 0 0.0 0.0 0.00 0.42 0.00 1013.5
20260510103913 0 0.0 0.0 0.00 0.42 0.00 1013.6
20260510103327 0 0.0 0.0 0.00 0.42 0.00 1013.4
20260510102824 0 0.0 0.0 0.00 0.42 0.00 1013.4
20260510102319 0 0.0 0.0 0.00 0.42 0.00 1013.4
20260510101821 0 0.0 0.0 0.00 0.42 0.00 1013.2
20260510100727 0 0.0 0.0 0.00 0.42 0.00 1013.3
20260510100221 0 0.0 0.0 0.00 0.42 0.00 1013.3
20260510095718 0 0.0 0.0 0.00 0.42 0.00 1013.3
20260510092424 0 0.0 0.0 0.00 0.42 0.00 1013.4
20260510091324 0 0.0 0.0 0.00 0.42 0.00 1013.4
20260510090817 0 0.0 0.0 0.00 0.42 0.00 1013.2
20260510090319 0 0.0 0.0 0.00 0.42 0.00 1013.3
20260510084622 0 0.0 0.0 0.00 0.42 0.00 1013.4
20260510084116 0 0.0 0.0 0.00 0.42 0.00 1013.5
20260510083518 0 0.0 0.0 0.00 0.42 0.00 1013.5
20260510083018 0 0.0 0.0 0.00 0.42 0.00 1013.6
20260510082516 0 0.0 0.0 0.00 0.42 0.00 1013.6
20260510081924 0 0.0 0.0 0.00 0.42 0.00 1013.6
20260510081411 0 0.0 0.0 0.00 0.42 0.00 1013.6
20260510080816 0 0.0 0.0 0.00 0.42 0.00 1013.6
20260510080221 0 0.0 0.0 0.00 0.42 0.00 1013.4
20260510075218 0 0.0 0.0 0.00 0.42 0.00 1013.3
20260510074714 0 0.0 0.0 0.00 0.42 0.00 1013.3
20260510074213 0 161 0.0 0.0 0.00 0.42 0.00 1013.5
20260510073712 50 161 0.0 0.0 0.00 0.42 0.00 97 1013.2
20260510073127 50 161 0.0 0.0 0.00 0.42 0.00 97 1013.1
20260510071615 50 162 0.0 0.0 0.00 0.42 0.00 97 1013.0
20260510071116 50 162 0.0 0.0 0.00 0.42 0.00 97 1013.1
20260510070116 50 162 0.0 0.0 0.00 0.42 0.00 97 1013.0
20260510065612 50 162 0.0 0.0 0.00 0.42 0.00 97 1013.1
20260510065111 50 162 0.0 0.0 0.00 0.42 0.00 97 1013.1
20260510064611 50 162 0.0 0.0 0.00 0.42 0.00 97 1013.1
20260510064111 50 162 0.0 0.0 0.00 0.42 0.00 97 1013.2
20260510063611 50 162 0.0 0.0 0.00 0.42 0.00 97 1013.3
20260510063110 50 162 0.0 0.0 0.00 0.42 0.00 97 1013.2
20260510062612 50 162 0.0 0.0 0.00 0.42 0.00 97 1013.2
20260510061609 50 162 0.0 0.0 0.00 0.42 0.00 97 1013.2
20260510061108 50 162 0.0 0.0 0.00 0.42 0.00 97 1013.1
20260510060608 50 162 0.0 0.0 0.00 0.42 0.00 97 1013.1
20260510055600 50 162 0.0 0.0 0.00 0.42 0.00 97 1012.8
20260510054043 50 167 0.0 0.0 0.00 0.42 0.00 97 1012.9
20260510053537 50 167 0.0 0.0 0.00 0.42 0.00 97 1012.9
20260510053031 50 167 0.0 0.0 0.00 0.42 0.00 97 1012.9
20260510052524 50 167 0.0 0.0 0.00 0.42 0.00 97 1012.9
20260510052019 50 167 0.0 0.0 0.00 0.42 0.00 97 1013.1
20260510051019 50 167 0.0 0.0 0.00 0.42 0.00 97 1012.9
20260510050520 50 167 0.0 0.0 0.00 0.42 0.00 97 1013.0
20260510050018 50 167 0.0 0.0 0.00 0.42 0.00 97 1013.0
20260510045514 50 167 0.0 0.0 0.00 0.42 0.00 97 1013.0
20260510045014 50 167 0.0 0.0 0.00 0.42 0.00 97 1013.0
20260510044516 50 167 0.0 0.0 0.00 0.42 0.00 97 1013.0
20260510044012 50 167 0.0 0.0 0.00 0.42 0.00 97 1013.0
20260510043513 50 167 0.0 0.0 0.00 0.42 0.00 97 1013.1
20260510043013 50 167 0.0 0.0 0.00 0.42 0.00 97 1013.1
20260510042511 51 139 0.0 0.0 0.00 0.42 0.00 97 1013.0
20260510042009 51 139 0.0 0.0 0.00 0.42 0.00 97 1012.9
20260510041507 51 139 0.0 0.0 0.00 0.42 0.00 97 1012.9
20260510041004 51 139 0.0 0.0 0.00 0.42 0.00 97 1012.9
20260510040502 51 139 0.0 0.0 0.00 0.42 0.00 97 1012.9
20260510040000 51 127 0.0 0.0 0.00 0.42 0.42 97 1012.9
20260510035458 51 127 0.0 0.0 0.00 0.42 0.42 97 1012.8
20260510034959 51 127 0.0 0.0 0.00 0.42 0.42 97 1012.7
20260510034457 51 127 0.0 0.0 0.00 0.42 0.42 97 1012.7
20260510033955 51 127 0.0 0.0 0.00 0.42 0.42 96 1012.6
20260510032948 51 127 0.0 0.0 0.00 0.42 0.42 97 1012.9
20260510032445 51 127 0.0 0.0 0.00 0.42 0.42 97 1012.8
20260510031941 51 127 0.0 0.0 0.00 0.42 0.42 96 1012.9
20260510031441 51 127 0.0 0.0 0.00 0.42 0.42 96 1013.0
20260510030943 51 170 0.0 0.0 0.00 0.42 0.42 96 1013.0
20260510025943 51 170 0.0 0.0 0.00 0.42 0.42 97 1013.0
20260510025443 51 170 0.0 0.0 0.00 0.42 0.42 97 1013.1
20260510024941 51 170 0.0 0.0 0.00 0.42 0.42 96 1013.2
20260510024442 51 217 0.0 0.0 0.00 0.42 0.42 96 1013.1
20260510023942 51 240 0.0 0.0 0.00 0.42 0.42 97 1013.1
20260510022941 51 240 0.0 0.0 0.00 0.42 0.42 97 1013.1
20260510022443 51 240 0.0 0.0 0.00 0.42 0.42 97 1013.1
20260510020943 51 169 0.0 0.0 0.00 0.42 0.42 96 1013.0
20260510020443 51 169 0.0 0.0 0.00 0.42 0.42 96 1012.8
20260510015442 51 169 0.0 0.0 0.00 0.42 0.42 97 1012.9
20260510014441 51 169 0.0 0.0 0.00 0.42 0.42 96 1012.9
20260510013942 51 169 0.0 0.0 0.00 0.42 0.42 96 1012.8
20260510013441 51 169 0.0 0.0 0.00 0.42 0.42 96 1012.8
20260510012941 51 169 0.0 0.0 0.00 0.42 0.42 96 1012.8
20260510012442 51 169 0.0 0.0 0.00 0.42 0.42 96 1012.7
20260510011441 51 169 0.0 0.0 0.00 0.42 0.42 96 1012.8
20260510010936 51 169 0.0 0.0 0.00 0.42 0.42 96 1012.8
20260510005936 52 169 0.0 0.0 0.00 0.42 0.42 96 1012.4
20260510005437 52 169 0.0 0.0 0.00 0.42 0.42 96 1012.4
20260510003924 52 169 0.0 0.0 0.00 0.42 0.42 96 1012.3
20260510003418 52 169 0.0 0.0 0.00 0.42 0.42 96 1012.3
20260510002912 52 169 0.0 0.0 0.00 0.42 0.42 96 1012.3
20260510001901 52 169 0.0 0.0 0.00 0.42 0.42 96 1012.2
20260510001354 52 169 0.0 0.0 0.00 0.42 0.42 96 1012.1
20260510000342 52 169 0.0 0.0 0.00 0.42 0.42 96 1011.9
20260509235836 52 169 0.0 0.0 0.00 0.42 0.42 95 1011.9
20260509235330 52 169 0.0 0.0 0.00 0.42 0.42 95 1012.0
20260509234823 53 130 0.0 0.0 0.00 0.42 0.42 95 1012.1